This demonstration page uses our WeatherBlox Daily Observations layout. Learn more.

Left ArrowRight Arrow

Hourly Observations for January 15, 2022

Temp ( °F °C ) Dew Point ( °F °C ) Humidity (%) Winds ( mph kmh ) Pressure ( in mb ) Visibility ( mi km ) Precip ( " mm )
12:06 am 00:06 Windy with Snow Likely 19 -7.2 14 -10 81 81 N 26 43 30.31 1026 2 2 0.00 0.00
12:22 am 00:22 Mostly Cloudy with Light Snow 18 -7.8 14 -10 84 84 N 32 52 30.32 1027 1 1 0.00 0.00
12:38 am 00:38 Mostly Cloudy with Light Snow 18 -7.8 14 -10 84 84 N 28 44 30.32 1027 1 2 0.00 0.00
12:50 am 00:50 Mostly Cloudy with Light Snow 18 -8 12 -11 79 79 N 31 50 30.33 1027 1 1 0.00 0.00
12:54 am 00:54 Mostly Cloudy with Light Snow 18 -7.8 13 -10.6 81 81 N 31 50 30.27 1025 1 1 0.00 0.00
1:34 am 01:34 Windy with Snow Likely 17 -8.3 13 -10.6 84 84 N 29 46 30.34 1028 1 2 0.00 0.00
1:46 am 01:46 Windy with Snow Likely 17 -8.3 12 -11.1 80 80 N 30 48 30.35 1028 2 2 0.00 0.00
1:54 am 01:54 Windy with Snow Likely 17 -8.3 12 -11.1 80 80 N 29 46 30.29 1026 2 3 0.00 0.00
2:01 am 02:01 Windy with Snow Likely 17 -8.3 12 -11.1 80 80 N 29 46 30.35 1028 3 4 0.00 0.00
2:54 am 02:54 Windy with Snow Likely 17 -8.3 12 -11.1 80 80 N 28 44 30.33 1027 2 3 0.00 0.00
3:20 am 03:20 Windy with Snow Likely 17 -8.3 12 -11.1 80 80 N 29 46 30.39 1029 2 3 0.00 0.00
3:47 am 03:47 Windy with Snow Likely 17 -8.3 11 -11.7 77 77 N 28 44 30.41 1030 2 3 0.00 0.00
3:54 am 03:54 Windy with Snow Likely 16 -8.9 11 -11.7 80 80 N 25 41 30.36 1028 2 3 0.00 0.00
4:05 am 04:05 Windy with Snow Likely 16 -8.9 11 -11.7 80 80 N 29 46 30.42 1030 3 5 0.00 0.00
4:33 am 04:33 Windy with Snow Likely 16 -8.9 10 -12.2 77 77 N 28 44 30.43 1030 8 13 0.00 0.00
4:54 am 04:54 Windy with Snow Likely 16 -8.9 10 -12.2 77 77 N 28 44 30.38 1029 8 13 0.00 0.00
5:21 am 05:21 Windy with Snow Likely 15 -9.4 9 -12.8 77 77 N 26 43 30.46 1031 7 11 0.00 0.00
5:29 am 05:29 Windy with Snow Likely 15 -9.4 9 -12.8 77 77 N 31 50 30.47 1032 7 11 0.00 0.00
5:54 am 05:54 Windy with Snow Likely 15 -9.4 9 -12.8 77 77 N 26 43 30.43 1030 9 14 0.00 0.00
6:54 am 06:54 Cloudy 14 -10 7 -13.9 73 73 N 28 44 30.46 1032 10 16 0.00 0.00
7:54 am 07:54 Cloudy 13 -10.6 7 -13.9 77 77 N 21 33 30.51 1033 10 16 0.00 0.00
8:54 am 08:54 Cloudy 12 -11.1 6 -14.4 77 77 N 20 31 30.52 1033 10 16 0.00 0.00
9:54 am 09:54 Partly Cloudy 11 -11.7 4 -15.6 73 73 N 17 28 30.55 1035 10 16 0.00 0.00
10:33 am 10:33 Mostly Cloudy 13 -10.6 5 -15 70 70 N 21 33 30.61 1036 10 16 0.00 0.00
10:54 am 10:54 Cloudy 13 -10.6 5 -15 70 70 N 18 30 30.55 1035 10 16 0.00 0.00
11:06 am 11:06 Cloudy 13 -10.6 5 -15 70 70 N 17 28 30.60 1036 10 16 0.00 0.00
11:28 am 11:28 Partly Cloudy 14 -10 6 -14.4 71 71 N 16 26 30.58 1036 10 16 0.00 0.00
11:54 am 11:54 Sunny 15 -9.4 7 -13.9 70 70 N 14 22 30.53 1034 10 16 0.00 0.00
12:54 pm 12:54 Sunny 16 -8.9 8 -13.3 71 71 N 15 24 30.49 1033 10 16 0.00 0.00
1:54 pm 13:54 Sunny 19 -7.2 10 -12.2 68 68 N 12 19 30.45 1031 10 16 0.00 0.00
2:54 pm 14:54 Sunny 20 -6.7 11 -11.7 68 68 N 12 19 30.43 1031 10 16 0.00 0.00
3:54 pm 15:54 Sunny 20 -6.7 11 -11.7 68 68 N 8 13 30.43 1031 10 16 0.00 0.00
4:54 pm 16:54 Sunny 18 -7.8 10 -12.2 71 71 N 7 11 30.42 1030 10 16 0.00 0.00
5:54 pm 17:54 Clear 13 -10.6 7 -13.9 77 77 NNE 5 7 30.42 1030 10 16 0.00 0.00
6:54 pm 18:54 Clear 10 -12.2 5 -15 80 80 ENE 5 7 30.39 1029 10 16 0.00 0.00
7:54 pm 19:54 Clear 13 -10.6 7 -13.9 77 77 SSW 3 6 30.37 1029 10 16 0.00 0.00
8:54 pm 20:54 Clear 9 -12.8 5 -15 84 84 S 6 9 30.35 1028 10 16 0.00 0.00
9:54 pm 21:54 Clear 10 -12.2 5 -15 80 80 S 6 9 30.32 1027 10 16 0.00 0.00
10:54 pm 22:54 Clear 10 -12.2 5 -15 80 80 Calm 30.30 1026 10 16 0.00 0.00
11:54 pm 23:54 Clear 8 -13.3 4 -15.6 83 83 Calm 30.29 1026 10 16 0.00 0.00

Powered by AerisWeather